K6MBY Weather Reports


time (UTC)temp
C
wind
direction
speed
KPH
gust
KPH
rain 1hr
cm
rain 24hr
cm
rain mn
cm
humidity
%
barometer
mb
20260503230427 23 350 8.0 11.3 0.00 0.00 0.00 35 1015.2
20260503225925 23 348 6.4 8.0 0.00 0.00 0.00 36 1015.2
20260503225422 23 6 4.8 12.9 0.00 0.00 0.00 38 1015.4
20260503224917 23 358 8.0 11.3 0.00 0.00 0.00 34 1015.3
20260503224415 23 340 4.8 8.0 0.00 0.00 0.00 41 1015.4
20260503223912 23 347 4.8 8.0 0.00 0.00 0.00 40 1015.6
20260503223410 22 308 4.8 8.0 0.00 0.00 0.00 47 1015.7
20260503222910 21 333 4.8 8.0 0.00 0.00 0.00 48 1015.7
20260503222409 22 10 4.8 9.7 0.00 0.00 0.00 49 1015.8
20260503221907 22 359 8.0 9.7 0.00 0.00 0.00 50 1015.9
20260503221405 22 326 4.8 4.8 0.00 0.00 0.00 48 1016.0
20260503220901 22 9 3.2 4.8 0.00 0.00 0.00 48 1015.9
20260503220358 21 332 6.4 8.0 0.00 0.00 0.00 49 1016.1
20260503215855 21 20 4.8 9.7 0.00 0.00 0.00 49 1016.2
20260503215352 21 4 8.0 9.7 0.00 0.00 0.00 48 1016.2
20260503214849 21 10 6.4 8.0 0.00 0.00 0.00 49 1016.3
20260503214347 21 3 9.7 11.3 0.00 0.00 0.00 49 1016.3
20260503213844 21 5 8.0 11.3 0.00 0.00 0.00 50 1016.4
20260503213342 21 12 8.0 12.9 0.00 0.00 0.00 51 1016.5
20260503212838 21 6 14.5 16.1 0.00 0.00 0.00 51 1016.5
20260503212336 21 13 16.1 17.7 0.00 0.00 0.00 50 1016.5
20260503211833 20 5 16.1 20.9 0.00 0.00 0.00 52 1016.5
20260503211330 20 40 11.3 14.5 0.00 0.00 0.00 50 1016.6
20260503210825 20 0 11.3 16.1 0.00 0.00 0.00 55 1016.6
20260503210323 20 13 12.9 16.1 0.00 0.00 0.00 55 1016.6
20260503205817 20 19 12.9 16.1 0.00 0.00 0.00 54 1016.8
20260503205314 20 18 16.1 17.7 0.00 0.00 0.00 50 1016.6
20260503204811 20 7 14.5 17.7 0.00 0.00 0.00 52 1016.9
20260503204309 21 22 16.1 20.9 0.00 0.00 0.00 49 1016.8
20260503203806 21 5 12.9 16.1 0.00 0.00 0.00 52 1016.8
20260503203303 20 4 11.3 17.7 0.00 0.00 0.00 50 1016.8
20260503202800 20 0 9.7 14.5 0.00 0.00 0.00 55 1016.7
20260503202258 20 354 9.7 12.9 0.00 0.00 0.00 53 1016.8
20260503201755 20 22 14.5 17.7 0.00 0.00 0.00 53 1016.7
20260503201253 21 352 9.7 16.1 0.00 0.00 0.00 49 1016.8
20260503200749 21 6 9.7 11.3 0.00 0.00 0.00 52 1016.8
20260503200245 21 16 9.7 11.3 0.00 0.00 0.00 47 1016.8
20260503195743 21 14 9.7 12.9 0.00 0.00 0.00 52 1016.8
20260503195239 21 1 8.0 12.9 0.00 0.00 0.00 51 1017.2
20260503194737 21 9 8.0 12.9 0.00 0.00 0.00 52 1017.1
20260503194227 21 5 6.4 9.7 0.00 0.00 0.00 50 1017.2
20260503193723 21 16 11.3 14.5 0.00 0.00 0.00 48 1017.3
20260503193220 20 9 8.0 11.3 0.00 0.00 0.00 48 1017.4
20260503192716 21 324 6.4 9.7 0.00 0.00 0.00 48 1017.5
20260503192211 20 350 9.7 11.3 0.00 0.00 0.00 48 1017.5
20260503191708 20 22 9.7 11.3 0.00 0.00 0.00 51 1017.5
20260503191205 20 14 9.7 11.3 0.00 0.00 0.00 51 1017.4
20260503190702 21 4 11.3 12.9 0.00 0.00 0.00 51 1017.6
20260503190158 21 7 8.0 12.9 0.00 0.00 0.00 48 1017.5
20260503185656 21 32 4.8 8.0 0.00 0.00 0.00 48 1017.7
20260503185151 20 293 3.2 8.0 0.00 0.00 0.00 48 1017.5
20260503184645 21 11 8.0 9.7 0.00 0.00 0.00 51 1017.7
20260503184142 20 12 4.8 4.8 0.00 0.00 0.00 56 1017.7
20260503183633 20 10 8.0 9.7 0.00 0.00 0.00 56 1017.9
20260503183131 20 14 8.0 12.9 0.00 0.00 0.00 58 1017.7
20260503182629 19 17 9.7 11.3 0.00 0.00 0.00 56 1018.1
20260503182127 19 1 9.7 11.3 0.00 0.00 0.00 55 1017.9
20260503181623 19 324 8.0 9.7 0.00 0.00 0.00 55 1018.0
20260503181120 19 14 11.3 12.9 0.00 0.00 0.00 57 1018.2
20260503180617 19 11 11.3 12.9 0.00 0.00 0.00 57 1018.2
20260503180115 19 339 6.4 8.0 0.00 0.00 0.00 55 1018.3
20260503175611 19 14 9.7 11.3 0.00 0.00 0.00 55 1018.2
20260503175108 19 342 6.4 9.7 0.00 0.00 0.00 55 1018.3
20260503174605 19 11 9.7 11.3 0.00 0.00 0.00 56 1018.5
20260503174102 20 27 4.8 9.7 0.00 0.00 0.00 56 1018.5
20260503173557 19 346 4.8 8.0 0.00 0.00 0.00 55 1018.6
20260503173053 19 325 3.2 9.7 0.00 0.00 0.00 56 1018.3
20260503172550 19 0 8.0 11.3 0.00 0.00 0.00 57 1018.5
20260503172048 18 24 4.8 8.0 0.00 0.00 0.00 61 1018.4
20260503171544 18 337 4.8 9.7 0.00 0.00 0.00 60 1018.3
20260503171041 18 290 8.0 9.7 0.00 0.00 0.00 62 1018.3
20260503170538 18 8 9.7 11.3 0.00 0.00 0.00 62 1018.3
20260503150924 18 255 1.6 3.2 0.00 0.00 0.00 57 1018.8
20260503150421 18 244 1.6 3.2 0.00 0.00 0.00 57 1019.0
20260503131314 16 317 4.8 11.3 0.00 0.00 0.00 56 1018.3
20260503130811 17 312 4.8 11.3 0.00 0.00 0.00 55 1018.4
20260503130309 16 265 0.0 3.2 0.00 0.00 0.00 56 1018.4
20260503110702 16 206 8.0 9.7 0.00 0.00 0.00 55 1018.5
20260503110159 15 219 1.6 1.6 0.00 0.00 0.00 62 1018.4
20260503100126 16 210 8.0 11.3 0.00 0.00 0.00 55 1018.2
20260503081515 17 235 8.0 11.3 0.00 0.00 0.00 54 1018.0
20260503081013 17 222 11.3 14.5 0.00 0.00 0.00 55 1018.2
20260503080509 17 248 9.7 12.9 0.00 0.00 0.00 55 1018.2
20260503072443 17 245 8.0 9.7 0.00 0.00 0.00 56 1018.0
20260503071939 17 261 9.7 11.3 0.00 0.00 0.00 55 1017.9
20260503071436 16 261 6.4 8.0 0.00 0.00 0.00 62 1018.0
20260503070932 16 254 4.8 4.8 0.00 0.00 0.00 61 1018.1
20260503070430 16 239 8.0 12.9 0.00 0.00 0.00 58 1018.1
20260503054843 14 273 3.2 8.0 0.00 0.00 0.00 71 1018.0
20260503054339 13 273 4.8 4.8 0.00 0.00 0.00 73 1018.1
20260503053837 13 256 1.6 3.2 0.00 0.00 0.00 73 1018.1
20260503053335 14 254 1.6 3.2 0.00 0.00 0.00 72 1018.0
20260503052831 14 252 3.2 8.0 0.00 0.00 0.00 72 1018.0
20260503052328 14 236 3.2 4.8 0.00 0.00 0.00 71 1018.2
20260503051824 14 253 4.8 8.0 0.00 0.00 0.00 71 1018.3
20260503051321 14 259 6.4 8.0 0.00 0.00 0.00 71 1018.2
20260503050818 15 252 6.4 9.7 0.00 0.00 0.00 70 1018.2
20260503050314 15 257 4.8 8.0 0.00 0.00 0.00 68 1017.9
20260503045812 16 251 4.8 9.7 0.00 0.00 0.00 65 1018.0
20260503045309 17 235 11.3 12.9 0.00 0.00 0.00 62 1018.0
20260503044805 18 226 12.9 16.1 0.00 0.00 0.00 50 1018.0
20260503044302 19 223 14.5 16.1 0.00 0.00 0.00 52 1018.0
20260503043800 19 226 8.0 11.3 0.00 0.00 0.00 52 1017.8
20260503043257 19 224 8.0 9.7 0.00 0.00 0.00 52 1017.9
20260503042752 19 232 8.0 9.7 0.00 0.00 0.00 51 1017.9
20260503042249 19 202 8.0 9.7 0.00 0.00 0.00 50 1017.8
20260503041745 20 206 6.4 8.0 0.00 0.00 0.00 49 1017.7
20260503041238 20 228 8.0 9.7 0.00 0.00 0.00 49 1017.8
20260503040735 20 218 6.4 9.7 0.00 0.00 0.00 49 1017.7
20260503040233 20 209 11.3 11.3 0.00 0.00 0.00 49 1017.8
20260503035729 20 201 8.0 9.7 0.00 0.00 0.00 49 1017.6
20260503035227 20 199 4.8 9.7 0.00 0.00 0.00 50 1017.7
20260503034724 20 222 6.4 8.0 0.00 0.00 0.00 56 1017.5
20260503034221 20 203 1.6 3.2 0.00 0.00 0.00 49 1017.4
20260503033718 20 192 1.6 3.2 0.00 0.00 0.00 49 1017.3
20260503033215 21 197 1.6 1.6 0.00 0.00 0.00 49 1017.4
20260503032714 21 197 1.6 1.6 0.00 0.00 0.00 46 1017.3
20260503032212 21 197 1.6 1.6 0.00 0.00 0.00 46 1017.3
20260503031708 21 197 1.6 1.6 0.00 0.00 0.00 45 1017.2
20260503031207 21 292 1.6 1.6 0.00 0.00 0.00 46 1017.3
20260503030702 21 292 1.6 3.2 0.00 0.00 0.00 45 1017.4
20260503030159 22 292 1.6 1.6 0.00 0.00 0.00 43 1017.2
20260503025656 22 292 0.0 0.0 0.00 0.00 0.00 43 1017.2
20260503025154 22 292 0.0 1.6 0.00 0.00 0.00 43 1017.0
20260503024650 22 292 1.6 1.6 0.00 0.00 0.00 43 1017.0
20260503024148 22 292 0.0 0.0 0.00 0.00 0.00 44 1017.1
20260503023644 22 292 0.0 0.0 0.00 0.00 0.00 43 1017.2
20260503023141 22 293 0.0 0.0 0.00 0.00 0.00 41 1017.2
20260503022638 22 293 0.0 0.0 0.00 0.00 0.00 41 1017.1
20260503022137 23 293 0.0 0.0 0.00 0.00 0.00 41 1017.1
20260503021634 23 293 0.0 0.0 0.00 0.00 0.00 40 1017.3
20260503021131 23 294 0.0 1.6 0.00 0.00 0.00 41 1017.3
20260503020628 22 304 3.2 3.2 0.00 0.00 0.00 42 1017.3
20260503020126 22 347 3.2 4.8 0.00 0.00 0.00 44 1017.4
20260503015622 22 285 1.6 3.2 0.00 0.00 0.00 44 1017.5
20260503015119 22 332 3.2 4.8 0.00 0.00 0.00 44 1017.7
20260503014615 22 357 4.8 4.8 0.00 0.00 0.00 45 1017.6
20260503014113 22 337 3.2 3.2 0.00 0.00 0.00 47 1017.6
20260503013610 22 341 3.2 3.2 0.00 0.00 0.00 45 1017.5
20260503013108 22 331 3.2 3.2 0.00 0.00 0.00 44 1017.4
20260503012605 22 0 3.2 4.8 0.00 0.00 0.00 44 1017.7
20260503012102 22 330 3.2 3.2 0.00 0.00 0.00 46 1017.8
20260503011558 22 307 3.2 4.8 0.00 0.00 0.00 48 1017.8
20260503011055 21 349 3.2 4.8 0.00 0.00 0.00 47 1017.9
20260503010551 22 317 4.8 4.8 0.00 0.00 0.00 47 1017.7
20260503010049 22 359 6.4 8.0 0.00 0.00 0.00 46 1017.8
20260503005546 22 13 4.8 8.0 0.00 0.00 0.00 48 1017.8
20260503005043 21 341 4.8 8.0 0.00 0.00 0.00 48 1017.9
20260503004539 21 18 6.4 9.7 0.00 0.00 0.00 49 1017.9
20260503004038 22 16 9.7 12.9 0.00 0.00 0.00 48 1017.8
20260503003534 22 8 8.0 11.3 0.00 0.00 0.00 50 1017.8
20260503003031 22 327 3.2 4.8 0.00 0.00 0.00 42 1017.9
20260503002528 22 341 3.2 4.8 0.00 0.00 0.00 42 1017.9
20260503002025 22 301 1.6 3.2 0.00 0.00 0.00 45 1017.8
20260503001521 22 9 3.2 4.8 0.00 0.00 0.00 47 1018.0
20260503001019 22 324 1.6 1.6 0.00 0.00 0.00 48 1018.0
20260503000516 21 330 4.8 4.8 0.00 0.00 0.00 50 1017.9
20260503000013 21 5 4.8 8.0 0.00 0.00 0.00 52 1018.0
20260502235509 21 351 6.4 9.7 0.00 0.00 0.00 52 1018.0
20260502235008 21 13 6.4 9.7 0.00 0.00 0.00 53 1018.1
20260502234503 21 14 9.7 11.3 0.00 0.00 0.00 50 1018.1
20260502234001 22 16 8.0 9.7 0.00 0.00 0.00 52 1018.2
20260502233456 22 344 4.8 8.0 0.00 0.00 0.00 44 1018.3
20260502232953 22 15 8.0 9.7 0.00 0.00 0.00 47 1018.6
20260502232450 21 23 3.2 9.7 0.00 0.00 0.00 51 1018.4
20260502231946 21 8 4.8 11.3 0.00 0.00 0.00 52 1018.5
20260502231444 21 7 6.4 8.0 0.00 0.00 0.00 51 1018.7
20260502230942 21 20 8.0 11.3 0.00 0.00 0.00 52 1018.4